CW8919 Oeiras PT current weather conditions

sailwx.info

Wind from 350

Air temperature 10.6° C
Dewpoint 9.1° C

Last reported at 2020-Jan-26 00:59 UTC.
Time now 2020-Jan-26 01:42 UTC

Location: N 38°42' W 009°20'.
View on Google Maps.

See reports from other nearby stations

  
Tides and Currents Weather Stations Pressure Air Temp Water Temp Dewpoint Dewpoint Depression Visibility Wind Speed Wind Dir Waves Ship Positions
date/time (UTC)wind fromknots sea level pressurealtimeterstation pressurevisibilityair tempwater tempwave heightnotes
2020-Jan-26 00:59 350 10.6
2020-Jan-26 00:44 350 10.6
2020-Jan-26 00:29 350 10.6
2020-Jan-26 00:14 350 10.0
2020-Jan-25 23:59 350 10.0
2020-Jan-25 23:44 350 10.0
2020-Jan-25 23:29 350 10.0
2020-Jan-25 23:14 350 10.0
2020-Jan-25 22:59 350 10.0
2020-Jan-25 22:44 350 10.0
2020-Jan-25 22:29 350 10.0
2020-Jan-25 22:14 350 10.6
2020-Jan-25 21:59 350 10.6
2020-Jan-25 21:44 350 10.6
2020-Jan-25 21:30 350 11.1
2020-Jan-25 21:14 350 11.1
2020-Jan-25 20:59 350 11.1
2020-Jan-25 20:44 350 11.1
2020-Jan-25 20:29 350 11.7
2020-Jan-25 20:14 350 11.7
2020-Jan-25 19:59 350 11.7
2020-Jan-25 19:44 350 11.7
2020-Jan-25 19:29 350 0 gusting 0 11.7
2020-Jan-25 19:14 351 0 gusting 0 11.7
2020-Jan-25 18:59 350 12.2
2020-Jan-25 18:44 350 0 gusting 0 12.2
2020-Jan-25 18:29 351 12.2
2020-Jan-25 18:14 351 12.8
2020-Jan-25 17:59 352 12.8
2020-Jan-25 17:44 350 0 gusting 1 13.3
2020-Jan-25 17:29 343 13.3
2020-Jan-25 17:14 353 13.9
2020-Jan-25 16:59 343 13.9
2020-Jan-25 16:44 349 14.4
2020-Jan-25 16:29 344 0 gusting 0 14.4
2020-Jan-25 16:14 354 15.0
2020-Jan-25 15:59 352 15.0
2020-Jan-25 15:44 358 15.6
2020-Jan-25 15:29 350 15.6
2020-Jan-25 15:14 360 15.6
2020-Jan-25 14:59 356 15.6
2020-Jan-25 14:44 359 0 gusting 0 15.6
2020-Jan-25 14:29 358 0 gusting 0 15.6
2020-Jan-25 14:14 356 0 gusting 0 15.0
2020-Jan-25 13:59 352 15.6
2020-Jan-25 13:44 042 0 gusting 0 15.6
2020-Jan-25 13:29 350 15.6
2020-Jan-25 13:14 078 16.7
2020-Jan-25 12:59 064 16.1
2020-Jan-25 12:44 049 15.6
2020-Jan-25 12:29 086 15.0
2020-Jan-25 12:14 064 14.4
2020-Jan-25 11:59 053 0 gusting 0 14.4
2020-Jan-25 11:44 069 15.0
2020-Jan-25 11:29 064 14.4
2020-Jan-25 11:14 046 0 gusting 0 13.3
2020-Jan-25 10:59 069 12.8
2020-Jan-25 10:44 069 12.2
2020-Jan-25 10:29 041 0 gusting 0 12.2
2020-Jan-25 10:14 052 0 gusting 0 11.7
2020-Jan-25 09:59 059 11.7
2020-Jan-25 09:44 059 0 gusting 0 11.7
2020-Jan-25 09:29 059 0 gusting 0 11.7
2020-Jan-25 09:14 041 0 gusting 0 11.1
2020-Jan-25 08:59 042 10.6
2020-Jan-25 08:44 044 10.6
2020-Jan-25 08:29 044 10.6
2020-Jan-25 08:14 046 0 gusting 0 10.6
2020-Jan-25 07:59 059 10.6
2020-Jan-25 07:44 059 0 gusting 0 10.6
2020-Jan-25 07:29 053 0 gusting 0 10.6
2020-Jan-25 07:14 050 0 gusting 0 10.6
2020-Jan-25 06:59 048 10.6
2020-Jan-25 06:44 052 0 gusting 0 10.6
2020-Jan-25 06:29 045 10.6
2020-Jan-25 06:14 049 10.6
2020-Jan-25 05:59 044 0 gusting 0 10.6
2020-Jan-25 05:44 044 10.6
2020-Jan-25 05:29 048 0 gusting 0 10.6
2020-Jan-25 05:14 046 0 gusting 0 10.6
2020-Jan-25 04:59 059 0 gusting 0 10.6
2020-Jan-25 04:44 051 0 gusting 0 10.6
2020-Jan-25 04:29 052 10.6
2020-Jan-25 04:14 046 0 gusting 0 10.6
2020-Jan-25 03:59 044 10.6
2020-Jan-25 03:44 052 10.6
2020-Jan-25 03:29 048 0 gusting 0 10.6
2020-Jan-25 03:14 045 10.6
2020-Jan-25 02:59 046 10.6
2020-Jan-25 02:44 047 0 gusting 0 10.6
2020-Jan-25 02:29 048 10.6
2020-Jan-25 02:14 052 0 gusting 0 10.6
2020-Jan-25 01:59 055 10.6
2020-Jan-25 01:44 059 10.6
2020-Jan-25 01:29 059 10.6
2020-Jan-25 01:14 059 0 gusting 0 10.6
2020-Jan-25 00:59 059 10.6
2020-Jan-25 00:44 059 10.6
2020-Jan-25 00:29 059 10.6
2020-Jan-25 00:14 059 10.6
2020-Jan-24 23:59 059 10.6
2020-Jan-24 23:44 059 10.6
2020-Jan-24 23:29 059 10.6
2020-Jan-24 23:14 059 0 gusting 0 10.6
2020-Jan-24 22:59 059 10.6
2020-Jan-24 22:44 059 0 gusting 2 10.6
2020-Jan-24 22:29 064 10.6
2020-Jan-24 22:14 064 0 gusting 3 10.6
2020-Jan-24 21:59 077 0 gusting 3 10.6
2020-Jan-24 21:44 096 1 gusting 3 10.6
2020-Jan-24 21:29 104 10.6
2020-Jan-24 21:14 112 10.6
2020-Jan-24 20:59 112 0 gusting 0 10.6
2020-Jan-24 20:44 127 10.6
2020-Jan-24 20:29 133 0 gusting 1 10.6
2020-Jan-24 20:14 133 0 gusting 1 10.6
2020-Jan-24 19:59 133 10.6
2020-Jan-24 19:44 132 11.1
2020-Jan-24 19:29 133 11.1
2020-Jan-24 19:14 136 0 gusting 3 11.1
2020-Jan-24 18:59 127 1 gusting 5 11.1
2020-Jan-24 18:44 121 2 gusting 8 12.2
2020-Jan-24 18:29 081 6 gusting 12 12.8
2020-Jan-24 18:14 081 1 gusting 4 12.8
2020-Jan-24 17:59 079 0 gusting 3 12.8
2020-Jan-24 17:44 078 2 gusting 3 13.3
2020-Jan-24 17:29 081 1 gusting 3 13.3
2020-Jan-24 17:14 081 0 gusting 3 13.3
2020-Jan-24 16:59 101 13.3
2020-Jan-24 16:44 086 1 gusting 4 13.3
2020-Jan-24 16:29 090 0 gusting 2 13.3
2020-Jan-24 16:14 092 13.3
2020-Jan-24 15:59 102 1 gusting 7 13.3
2020-Jan-24 15:44 089 2 gusting 6 13.3
2020-Jan-24 15:29 103 0 gusting 3 13.3
2020-Jan-24 15:14 087 5 gusting 10 13.3
2020-Jan-24 14:59 098 1 gusting 3 13.3
2020-Jan-24 14:44 113 1 gusting 3 13.3
2020-Jan-24 14:29 075 2 gusting 6 12.8
2020-Jan-24 14:14 087 2 gusting 7 12.8
2020-Jan-24 13:59 088 2 gusting 5 12.8
2020-Jan-24 13:44 081 3 gusting 7 13.3
2020-Jan-24 13:29 102 0 gusting 3 12.8
2020-Jan-24 13:14 104 0 gusting 3 13.3
2020-Jan-24 12:59 094 0 gusting 1 13.3
2020-Jan-24 12:44 095 13.3
2020-Jan-24 12:29 077 0 gusting 1 12.8
2020-Jan-24 12:14 109 12.8
2020-Jan-24 11:59 089 0 gusting 5 12.2
2020-Jan-24 11:44 100 12.8
2020-Jan-24 11:29 090 0 gusting 2 12.2
2020-Jan-24 11:14 093 0 gusting 2 12.2
2020-Jan-24 10:59 076 12.2
2020-Jan-24 10:44 086 0 gusting 2 11.7
2020-Jan-24 10:29 091 1 gusting 3 11.7
2020-Jan-24 10:14 088 0 gusting 2 11.1
2020-Jan-24 09:59 099 3 gusting 5 10.6
2020-Jan-24 09:44 081 2 gusting 6 10.6
2020-Jan-24 09:29 087 0 gusting 4 10.6
2020-Jan-24 09:14 094 3 gusting 9 10.6
2020-Jan-24 08:59 085 1 gusting 5 10.0
2020-Jan-24 08:44 105 1 gusting 5 10.0
2020-Jan-24 08:29 074 1 gusting 5 10.0
2020-Jan-24 08:14 108 2 gusting 4 10.0
2020-Jan-24 07:59 090 0 gusting 3 10.0
2020-Jan-24 07:44 078 0 gusting 6 10.0
2020-Jan-24 07:29 078 1 gusting 5 9.4
2020-Jan-24 07:14 083 4 gusting 6 9.4
2020-Jan-24 06:59 078 0 gusting 4 9.4
2020-Jan-24 06:44 073 1 gusting 5 9.4
2020-Jan-24 06:29 081 2 gusting 7 9.4
2020-Jan-24 06:14 086 1 gusting 5 8.9
2020-Jan-24 05:59 078 0 gusting 4 8.9
2020-Jan-24 05:44 079 1 gusting 5 9.4
2020-Jan-24 05:29 096 0 gusting 4 9.4
2020-Jan-24 05:14 074 0 gusting 4 9.4
2020-Jan-24 04:59 069 1 gusting 3 9.4
2020-Jan-24 04:44 069 1 gusting 3 8.9
2020-Jan-24 04:29 064 1 gusting 3 8.9
2020-Jan-24 04:14 069 1 gusting 5 8.9
2020-Jan-24 03:59 069 2 gusting 5 8.9
2020-Jan-24 03:44 073 1 gusting 3 9.4
2020-Jan-24 03:29 086 1 gusting 3 9.4
2020-Jan-24 03:14 098 9.4
2020-Jan-24 02:59 098 9.4
2020-Jan-24 02:44 099 9.4
2020-Jan-24 02:29 100 0 gusting 1 9.4
2020-Jan-24 02:14 100 9.4
2020-Jan-24 01:59 100 9.4
2020-Jan-24 01:44 100 9.4
2020-Jan-24 01:29 100 0 gusting 1 9.4
2020-Jan-24 01:14 102 0 gusting 2 9.4